User: anonymous   Login
Location: ?
(35.4214°N, 139.3011°E)
Time: 02:17:50
(UTC+00:00)
Language:

Meteor 2-17 Rocket - Orbit

View from above orbital plane
View from above orbital plane
View from above satellite
View from above satellite

Ground track
Ground track

The orbit data is extracted from the following two-line orbital elements,

1 18821U 88005B   20272.47650381 +.00000007 +00000-0 -69435-5 0  9998
2 18821 082.5462 187.5187 0013823 197.8309 162.2368 13.85119861651014
Epoch (UTC): 28 September 2020 11:26:09
Eccentricity: 0.0013823
inclination: 82.5462°
perigee height: 935 km
apogee height: 956 km
right ascension of ascending node: 187.5187°
argument of perigee: 197.8309°
revolutions per day: 13.85119861
mean anomaly at epoch: 162.2368°
orbit number at epoch: 65101

The dashed part of the orbit path shows where the satellite is in the earth's shadow,  

DLR